TimeCDT,TemperatureF,Dew PointF,Humidity,Sea Level PressureIn,VisibilityMPH,Wind Direction,Wind SpeedMPH,Gust SpeedMPH,PrecipitationIn,Events,Conditions,WindDirDegrees,DateUTC
12:53 AM,66.0,61.0,84,29.81,10.0,NW,5.8,-,N/A,,Clear,320,2013-09-02 05:53:00
1:53 AM,64.9,60.1,84,29.82,10.0,NW,5.8,-,N/A,,Clear,320,2013-09-02 06:53:00
2:53 AM,64.0,60.1,87,29.83,10.0,NNW,5.8,-,N/A,,Clear,330,2013-09-02 07:53:00
3:53 AM,63.0,59.0,87,29.83,10.0,NNW,4.6,-,N/A,,Clear,330,2013-09-02 08:53:00
4:53 AM,62.1,59.0,90,29.85,10.0,NW,5.8,-,N/A,,Partly Cloudy,320,2013-09-02 09:53:00
5:53 AM,62.1,59.0,90,29.88,10.0,NW,4.6,-,N/A,,Mostly Cloudy,320,2013-09-02 10:53:00
6:23 AM,62.6,59.0,88,29.89,10.0,NW,5.8,-,N/A,,Mostly Cloudy,310,2013-09-02 11:23:00
6:53 AM,63.0,60.1,90,29.90,10.0,NW,5.8,-,N/A,,Overcast,320,2013-09-02 11:53:00
7:53 AM,66.0,61.0,84,29.91,10.0,NNW,4.6,-,N/A,,Partly Cloudy,330,2013-09-02 12:53:00
8:53 AM,70.0,63.0,78,29.92,10.0,North,4.6,-,N/A,,Clear,350,2013-09-02 13:53:00
9:53 AM,70.0,63.0,78,29.94,10.0,North,5.8,-,N/A,,Mostly Cloudy,350,2013-09-02 14:53:00
10:53 AM,72.0,63.0,73,29.95,10.0,North,8.1,-,N/A,,Overcast,10,2013-09-02 15:53:00
11:50 AM,69.8,60.8,73,29.95,10.0,NNE,9.2,-,N/A,,Overcast,20,2013-09-02 16:50:00
11:53 AM,70.0,61.0,73,29.95,10.0,NE,8.1,-,N/A,,Overcast,40,2013-09-02 16:53:00
12:33 PM,71.6,60.8,69,29.96,10.0,NW,8.1,-,N/A,,Mostly Cloudy,320,2013-09-02 17:33:00
12:53 PM,75.0,60.1,60,29.95,10.0,NW,10.4,-,N/A,,Mostly Cloudy,320,2013-09-02 17:53:00
1:44 PM,73.4,60.8,65,29.96,10.0,NW,10.4,18.4,N/A,,Mostly Cloudy,320,2013-09-02 18:44:00
1:53 PM,73.9,60.1,62,29.95,10.0,NNW,6.9,-,N/A,,Mostly Cloudy,330,2013-09-02 18:53:00
2:53 PM,75.9,55.9,50,29.94,10.0,NW,9.2,-,N/A,,Mostly Cloudy,310,2013-09-02 19:53:00
3:17 PM,75.2,55.4,50,29.95,10.0,NNW,10.4,-,N/A,,Scattered Clouds,330,2013-09-02 20:17:00
3:53 PM,75.0,55.9,51,29.94,10.0,NW,9.2,18.4,N/A,,Scattered Clouds,310,2013-09-02 20:53:00
4:53 PM,73.0,57.0,57,29.95,10.0,NNE,10.4,-,N/A,,Mostly Cloudy,20,2013-09-02 21:53:00
5:53 PM,70.0,57.0,63,29.96,10.0,NNE,6.9,-,N/A,,Scattered Clouds,30,2013-09-02 22:53:00
6:53 PM,66.0,55.0,68,29.96,10.0,NNE,5.8,-,N/A,,Partly Cloudy,30,2013-09-02 23:53:00
7:53 PM,63.0,55.0,75,29.97,10.0,North,3.5,-,N/A,,Mostly Cloudy,350,2013-09-03 00:53:00
8:53 PM,61.0,53.1,75,29.99,10.0,North,4.6,-,N/A,,Clear,360,2013-09-03 01:53:00
9:53 PM,59.0,52.0,78,30.00,10.0,NNW,3.5,-,N/A,,Clear,340,2013-09-03 02:53:00
10:53 PM,59.0,52.0,78,30.00,10.0,NNW,4.6,-,N/A,,Mostly Cloudy,330,2013-09-03 03:53:00
11:53 PM,57.9,51.1,78,30.00,10.0,NNW,4.6,-,N/A,,Clear,340,2013-09-03 04:53:00